RYR86DZ EBCI-LFMU

Flight info

Callsign RYR86DZ
Flight time 1h 27m
Altitude 33000
Route CIV N872 LESDO DCT KOVIN DCT DUCRA UM728 RESMI UN857 DISAK DCT DIRMO DCT ETAMO DCT ADEKA DCT MOKDI DCT MEN J27 AFRIC
Aircraft B738/M-SDE2E3FGHIRWXY/LB1

Departure

Time 2026-04-25 14:56
Airport Brussels South Charleroi Airport (EBCI)

Arrival

Time 2026-04-25 16:23
Airport Béziers Vias airport (LFMU)
Time Latitude Longitude Altitude Speed Heading
2026-04-25 14:31 50.46770 4.46750 612 ft 0 kts 335°
2026-04-25 14:46 50.46751 4.46763 623 ft 4 kts 335°
2026-04-25 14:47 50.46728 4.46778 612 ft 4 kts
2026-04-25 14:47 50.46716 4.46771 612 ft 4 kts 58°
2026-04-25 14:47 50.46704 4.46733 612 ft 2 kts 65°
2026-04-25 14:47 50.46703 4.46731 612 ft 0 kts 65°
2026-04-25 14:48 50.46704 4.46732 612 ft 0 kts 65°
2026-04-25 14:50 50.46704 4.46739 612 ft 1 kts 86°
2026-04-25 14:50 50.46697 4.46753 618 ft 3 kts 130°
2026-04-25 14:50 50.46666 4.46782 619 ft 8 kts 155°
2026-04-25 14:50 50.46603 4.46777 618 ft 11 kts 223°
2026-04-25 14:51 50.46564 4.46652 612 ft 15 kts 245°
2026-04-25 14:51 50.46516 4.46487 618 ft 18 kts 246°
2026-04-25 14:51 50.46458 4.46289 621 ft 22 kts 245°
2026-04-25 14:51 50.46392 4.46060 618 ft 25 kts 245°
2026-04-25 14:52 50.46323 4.45823 619 ft 23 kts 245°
2026-04-25 14:52 50.46258 4.45599 617 ft 22 kts 245°
2026-04-25 14:52 50.46195 4.45383 612 ft 21 kts 246°
2026-04-25 14:52 50.46155 4.45244 616 ft 21 kts 245°
2026-04-25 14:53 50.46076 4.44973 623 ft 20 kts 246°
2026-04-25 14:53 50.46019 4.44777 621 ft 19 kts 245°
2026-04-25 14:53 50.45964 4.44589 620 ft 19 kts 245°
2026-04-25 14:53 50.45892 4.44391 625 ft 24 kts 232°
2026-04-25 14:54 50.45787 4.44180 618 ft 22 kts 232°
2026-04-25 14:54 50.45703 4.44011 629 ft 19 kts 232°
2026-04-25 14:54 50.45605 4.43877 611 ft 19 kts 216°
2026-04-25 14:54 50.45558 4.43756 620 ft 11 kts 294°
2026-04-25 14:55 50.45536 4.43704 619 ft 10 kts 119°
2026-04-25 14:55 50.45575 4.43871 612 ft 38 kts 65°
2026-04-25 14:55 50.45783 4.44585 627 ft 104 kts 65°
2026-04-25 14:55 50.46161 4.45886 628 ft 155 kts 63°
2026-04-25 14:56 50.46619 4.47462 1172 ft 161 kts 63°
2026-04-25 14:56 50.47161 4.49022 1771 ft 166 kts 45°
2026-04-25 14:56 50.48207 4.49932 2093 ft 186 kts 11°
2026-04-25 14:56 50.49442 4.50773 2293 ft 210 kts 45°
2026-04-25 14:57 50.50190 4.52864 2519 ft 232 kts 60°
2026-04-25 14:57 50.51028 4.55168 2870 ft 250 kts 57°
2026-04-25 14:57 50.52035 4.57411 3686 ft 254 kts 51°
2026-04-25 14:57 50.53152 4.59560 4385 ft 256 kts 40°
2026-04-25 14:58 50.54755 4.60746 4953 ft 260 kts
2026-04-25 14:58 50.56532 4.60387 5786 ft 257 kts 338°
2026-04-25 14:58 50.57989 4.58769 6525 ft 262 kts 310°
2026-04-25 14:58 50.58825 4.56210 7206 ft 268 kts 285°
2026-04-25 14:59 50.58986 4.53266 7965 ft 273 kts 271°
2026-04-25 14:59 50.58934 4.50273 8759 ft 275 kts 270°
2026-04-25 14:59 50.58854 4.47255 9552 ft 277 kts 269°
2026-04-25 14:59 50.58769 4.44207 10332 ft 280 kts 270°
2026-04-25 15:00 50.58689 4.41047 10645 ft 301 kts 270°
2026-04-25 15:00 50.58611 4.37632 10871 ft 323 kts 269°
2026-04-25 15:00 50.58529 4.34048 11399 ft 332 kts 269°
2026-04-25 15:00 50.58448 4.30402 12130 ft 335 kts 269°
2026-04-25 15:01 50.58369 4.26732 12932 ft 337 kts 269°
2026-04-25 15:01 50.58288 4.23024 13686 ft 341 kts 269°
2026-04-25 15:01 50.58207 4.19279 14424 ft 344 kts 269°
2026-04-25 15:01 50.58126 4.15497 15144 ft 347 kts 269°
2026-04-25 15:02 50.58043 4.11728 15863 ft 351 kts 269°
2026-04-25 15:02 50.57960 4.07879 16582 ft 354 kts 269°
2026-04-25 15:02 50.57873 4.03989 17270 ft 358 kts 269°
2026-04-25 15:02 50.57785 4.00072 18049 ft 358 kts 269°
2026-04-25 15:03 50.57695 3.96146 18780 ft 360 kts 270°
2026-04-25 15:03 50.57603 3.92185 19363 ft 364 kts 269°
2026-04-25 15:03 50.57330 3.88200 19924 ft 371 kts 256°
2026-04-25 15:03 50.56206 3.84513 20534 ft 380 kts 237°
2026-04-25 15:04 50.54372 3.81476 21153 ft 389 kts 220°
2026-04-25 15:04 50.51981 3.79379 21717 ft 398 kts 207°
2026-04-25 15:04 50.49426 3.77651 22267 ft 402 kts 206°
2026-04-25 15:04 50.46829 3.75961 22797 ft 406 kts 206°
2026-04-25 15:05 50.44210 3.74247 23325 ft 409 kts 206°
2026-04-25 15:05 50.41578 3.72495 23846 ft 412 kts 207°
2026-04-25 15:05 50.38934 3.70708 24313 ft 415 kts 207°
2026-04-25 15:06 50.33632 3.67106 25330 ft 416 kts 207°
2026-04-25 15:06 50.30966 3.65302 25794 ft 418 kts 207°
2026-04-25 15:06 50.28285 3.63492 26207 ft 421 kts 207°
2026-04-25 15:06 50.25587 3.61672 26627 ft 424 kts 207°
2026-04-25 15:07 50.22873 3.59843 27069 ft 426 kts 207°
2026-04-25 15:07 50.20148 3.58010 27523 ft 427 kts 207°
2026-04-25 15:07 50.17422 3.56179 28070 ft 426 kts 207°
2026-04-25 15:07 50.14711 3.54362 28719 ft 422 kts 207°
2026-04-25 15:08 50.12028 3.52565 29391 ft 418 kts 206°
2026-04-25 15:08 50.09365 3.50784 30023 ft 415 kts 206°
2026-04-25 15:08 50.06715 3.49012 30480 ft 415 kts 206°
2026-04-25 15:08 50.04065 3.47241 30877 ft 414 kts 206°
2026-04-25 15:09 50.01420 3.45475 31344 ft 413 kts 206°
2026-04-25 15:09 49.98786 3.43720 31807 ft 411 kts 206°
2026-04-25 15:09 49.93549 3.40237 32645 ft 409 kts 206°
2026-04-25 15:10 49.90935 3.38501 33059 ft 408 kts 206°
2026-04-25 15:10 49.88316 3.36761 33151 ft 412 kts 206°
2026-04-25 15:11 49.80443 3.31551 33155 ft 406 kts 206°
2026-04-25 15:11 49.75247 3.28123 33174 ft 407 kts 206°
2026-04-25 15:12 49.67458 3.22994 33159 ft 408 kts 206°
2026-04-25 15:12 49.63961 3.20698 33166 ft 409 kts 206°
2026-04-25 15:13 49.54365 3.14411 33166 ft 409 kts 206°
2026-04-25 15:14 49.49129 3.10975 33165 ft 408 kts 207°
2026-04-25 15:14 49.44323 3.06496 33153 ft 403 kts 216°
2026-04-25 15:15 49.39692 3.01685 33157 ft 401 kts 216°
2026-04-25 15:15 49.35063 2.96927 33158 ft 400 kts 216°
2026-04-25 15:16 49.31215 2.93017 33160 ft 399 kts 216°
2026-04-25 15:16 49.24261 2.85999 33155 ft 399 kts 216°
2026-04-25 15:17 49.17295 2.78994 33157 ft 400 kts 216°
2026-04-25 15:18 49.12647 2.74330 33152 ft 400 kts 216°
2026-04-25 15:18 49.05663 2.67346 33159 ft 401 kts 216°
2026-04-25 15:19 49.01786 2.63478 33158 ft 401 kts 215°
2026-04-25 15:19 48.96325 2.58042 33159 ft 401 kts 215°
2026-04-25 15:20 48.91649 2.53404 33131 ft 401 kts 215°
2026-04-25 15:20 48.86973 2.48776 33129 ft 401 kts 215°
2026-04-25 15:21 48.82302 2.44161 33130 ft 400 kts 215°
2026-04-25 15:21 48.77638 2.39561 33130 ft 399 kts 215°
2026-04-25 15:22 48.72979 2.34979 33130 ft 399 kts 215°
2026-04-25 15:22 48.68329 2.30412 33134 ft 398 kts 215°
2026-04-25 15:23 48.63674 2.25850 33131 ft 398 kts 215°
2026-04-25 15:23 48.59014 2.21304 33142 ft 399 kts 213°
2026-04-25 15:24 48.53877 2.18099 33120 ft 404 kts 195°
2026-04-25 15:24 48.49299 2.16655 33118 ft 405 kts 194°
2026-04-25 15:25 48.42846 2.14658 33125 ft 405 kts 194°
2026-04-25 15:25 48.37374 2.12927 33128 ft 405 kts 192°
2026-04-25 15:26 48.34550 2.12617 33119 ft 409 kts 181°
2026-04-25 15:26 48.31711 2.13030 33135 ft 410 kts 176°
2026-04-25 15:26 48.26039 2.14101 33121 ft 411 kts 176°
2026-04-25 15:27 48.20359 2.15157 33109 ft 411 kts 176°
2026-04-25 15:28 48.11844 2.16679 33123 ft 411 kts 176°
2026-04-25 15:28 48.06164 2.17661 33125 ft 411 kts 176°
2026-04-25 15:29 48.00506 2.18698 33129 ft 410 kts 176°
2026-04-25 15:29 47.94839 2.19672 33130 ft 410 kts 176°
2026-04-25 15:30 47.89162 2.20642 33132 ft 411 kts 176°
2026-04-25 15:30 47.83473 2.21623 33136 ft 412 kts 176°
2026-04-25 15:31 47.77765 2.22607 33099 ft 413 kts 176°
2026-04-25 15:31 47.72049 2.23593 33111 ft 413 kts 176°
2026-04-25 15:32 47.66374 2.24573 33104 ft 413 kts 176°
2026-04-25 15:32 47.60653 2.25558 33113 ft 414 kts 176°
2026-04-25 15:33 47.52081 2.27025 33098 ft 413 kts 176°
2026-04-25 15:33 47.46377 2.28000 33103 ft 412 kts 176°
2026-04-25 15:34 47.40676 2.28973 33102 ft 412 kts 176°
2026-04-25 15:34 47.35939 2.29780 33095 ft 412 kts 176°
2026-04-25 15:35 47.26442 2.31391 33104 ft 412 kts 176°
2026-04-25 15:36 47.17904 2.32834 33105 ft 412 kts 176°
2026-04-25 15:36 47.12202 2.33796 33093 ft 413 kts 176°
2026-04-25 15:37 47.06496 2.34759 33103 ft 413 kts 176°
2026-04-25 15:37 47.00793 2.35717 33105 ft 413 kts 176°
2026-04-25 15:38 46.95084 2.36674 33102 ft 413 kts 176°
2026-04-25 15:38 46.89371 2.37630 33101 ft 414 kts 176°
2026-04-25 15:39 46.83644 2.38585 33102 ft 415 kts 176°
2026-04-25 15:39 46.77911 2.39540 33103 ft 414 kts 176°
2026-04-25 15:40 46.74120 2.40170 33101 ft 414 kts 176°
2026-04-25 15:40 46.66501 2.41434 33111 ft 414 kts 176°
2026-04-25 15:41 46.60784 2.42382 33102 ft 414 kts 176°
2026-04-25 15:41 46.55066 2.43325 33102 ft 413 kts 176°
2026-04-25 15:42 46.49346 2.44267 33102 ft 414 kts 176°
2026-04-25 15:42 46.43624 2.45207 33107 ft 414 kts 176°
2026-04-25 15:43 46.37893 2.46149 33105 ft 415 kts 176°
2026-04-25 15:43 46.32147 2.47089 33104 ft 416 kts 176°
2026-04-25 15:44 46.26389 2.48027 33108 ft 417 kts 176°
2026-04-25 15:44 46.20620 2.48968 33108 ft 417 kts 176°
2026-04-25 15:45 46.14844 2.49907 33107 ft 418 kts 176°
2026-04-25 15:45 46.11018 2.50528 33097 ft 418 kts 176°
2026-04-25 15:46 46.03278 2.51784 33106 ft 418 kts 176°
2026-04-25 15:46 45.97486 2.52717 33108 ft 419 kts 176°
2026-04-25 15:47 45.91682 2.53655 33090 ft 420 kts 176°
2026-04-25 15:47 45.85876 2.54590 33113 ft 420 kts 176°
2026-04-25 15:48 45.80073 2.55522 33107 ft 420 kts 176°
2026-04-25 15:48 45.74275 2.56451 33102 ft 419 kts 176°
2026-04-25 15:49 45.68473 2.57378 33110 ft 419 kts 176°
2026-04-25 15:49 45.62704 2.58300 33108 ft 420 kts 176°
2026-04-25 15:50 45.56854 2.59232 33104 ft 420 kts 176°
2026-04-25 15:50 45.51074 2.60153 33101 ft 421 kts 176°
2026-04-25 15:51 45.47181 2.60771 33113 ft 421 kts 176°
2026-04-25 15:51 45.39429 2.61999 33117 ft 421 kts 176°
2026-04-25 15:52 45.33601 2.62919 33104 ft 421 kts 176°
2026-04-25 15:52 45.27779 2.63837 33115 ft 421 kts 176°
2026-04-25 15:53 45.21951 2.64755 33114 ft 421 kts 176°
2026-04-25 15:53 45.16130 2.65671 33114 ft 421 kts 176°
2026-04-25 15:54 45.10378 2.66574 32778 ft 410 kts 176°
2026-04-25 15:54 45.07567 2.67015 32470 ft 403 kts 176°
2026-04-25 15:54 45.04785 2.67447 32124 ft 400 kts 176°
2026-04-25 15:55 45.02023 2.67878 31760 ft 398 kts 176°
2026-04-25 15:55 44.99282 2.68306 31411 ft 395 kts 176°
2026-04-25 15:55 44.96564 2.68731 31042 ft 393 kts 176°
2026-04-25 15:55 44.93848 2.69154 30672 ft 391 kts 176°
2026-04-25 15:56 44.91154 2.69573 30319 ft 389 kts 176°
2026-04-25 15:56 44.88470 2.69990 29938 ft 387 kts 176°
2026-04-25 15:56 44.85806 2.70404 29535 ft 384 kts 176°
2026-04-25 15:56 44.83159 2.70814 29151 ft 381 kts 176°
2026-04-25 15:57 44.80535 2.71221 28791 ft 377 kts 176°
2026-04-25 15:57 44.77936 2.71624 28419 ft 374 kts 176°
2026-04-25 15:57 44.75352 2.72025 28046 ft 372 kts 176°
2026-04-25 15:57 44.72792 2.72420 27686 ft 369 kts 176°
2026-04-25 15:58 44.70248 2.72812 27328 ft 367 kts 176°
2026-04-25 15:58 44.67721 2.73201 26971 ft 364 kts 176°
2026-04-25 15:58 44.65210 2.73588 26622 ft 362 kts 176°
2026-04-25 15:58 44.62715 2.73972 26262 ft 360 kts 176°
2026-04-25 15:59 44.60234 2.74354 25925 ft 357 kts 175°
2026-04-25 15:59 44.57803 2.74727 25585 ft 355 kts 176°
2026-04-25 15:59 44.55352 2.75104 25239 ft 354 kts 175°
2026-04-25 15:59 44.52911 2.75479 24904 ft 352 kts 176°
2026-04-25 16:00 44.50477 2.75855 24557 ft 351 kts 176°
2026-04-25 16:00 44.49660 2.75981 24446 ft 350 kts 175°
2026-04-25 16:00 44.45645 2.76595 23869 ft 349 kts 176°
2026-04-25 16:00 44.43234 2.76963 23469 ft 348 kts 176°
2026-04-25 16:01 44.40831 2.77328 23098 ft 346 kts 176°
2026-04-25 16:01 44.38444 2.77693 22738 ft 344 kts 175°
2026-04-25 16:01 44.36076 2.78055 22389 ft 341 kts 176°
2026-04-25 16:01 44.33723 2.78415 22056 ft 339 kts 176°
2026-04-25 16:02 44.31386 2.78773 21709 ft 337 kts 175°
2026-04-25 16:02 44.29068 2.79126 21376 ft 334 kts 175°
2026-04-25 16:02 44.26766 2.79476 21063 ft 331 kts 176°
2026-04-25 16:02 44.24479 2.79825 20701 ft 331 kts 176°
2026-04-25 16:03 44.22195 2.80170 20384 ft 329 kts 175°
2026-04-25 16:03 44.19928 2.80513 20058 ft 327 kts 177°
2026-04-25 16:03 44.17676 2.80854 19756 ft 324 kts 175°
2026-04-25 16:03 44.15435 2.81194 19406 ft 324 kts 176°
2026-04-25 16:04 44.13199 2.81533 19094 ft 322 kts 176°
2026-04-25 16:04 44.11725 2.81754 18879 ft 321 kts 176°
2026-04-25 16:04 44.09507 2.82089 18567 ft 320 kts 175°
2026-04-25 16:04 44.07294 2.82426 18224 ft 320 kts 176°
2026-04-25 16:05 44.05085 2.82761 17857 ft 319 kts 176°
2026-04-25 16:05 44.02888 2.83090 17517 ft 317 kts 175°
2026-04-25 16:05 43.98526 2.83749 16865 ft 314 kts 177°
2026-04-25 16:06 43.96359 2.84075 16539 ft 313 kts 175°
2026-04-25 16:06 43.94202 2.84399 16229 ft 311 kts 175°
2026-04-25 16:06 43.92058 2.84721 15914 ft 310 kts 176°
2026-04-25 16:07 43.87530 2.85402 15239 ft 309 kts 176°
2026-04-25 16:07 43.86119 2.85614 15012 ft 309 kts 175°
2026-04-25 16:07 43.83266 2.86041 14612 ft 308 kts 175°
2026-04-25 16:07 43.81132 2.86360 14278 ft 308 kts 175°
2026-04-25 16:08 43.79010 2.86719 13951 ft 308 kts 168°
2026-04-25 16:08 43.77068 2.87917 13595 ft 308 kts 139°
2026-04-25 16:08 43.75623 2.90063 13298 ft 303 kts 127°
2026-04-25 16:08 43.74359 2.92390 12959 ft 301 kts 124°
2026-04-25 16:09 43.73131 2.94733 12628 ft 301 kts 123°
2026-04-25 16:09 43.71908 2.97069 12338 ft 299 kts 124°
2026-04-25 16:09 43.70685 2.99395 12019 ft 299 kts 124°
2026-04-25 16:09 43.69460 3.01707 11735 ft 297 kts 125°
2026-04-25 16:10 43.68243 3.03997 11411 ft 295 kts 125°
2026-04-25 16:10 43.67026 3.06274 11096 ft 294 kts 124°
2026-04-25 16:10 43.65818 3.08530 10824 ft 291 kts 125°
2026-04-25 16:10 43.64617 3.10769 10520 ft 289 kts 124°
2026-04-25 16:11 43.63418 3.13000 10237 ft 289 kts 124°
2026-04-25 16:11 43.62247 3.15176 10107 ft 283 kts 125°
2026-04-25 16:11 43.61077 3.17351 9838 ft 282 kts 125°
2026-04-25 16:11 43.59909 3.19516 9520 ft 281 kts 125°
2026-04-25 16:12 43.58743 3.21675 9213 ft 280 kts 125°
2026-04-25 16:12 43.57582 3.23822 8923 ft 279 kts 125°
2026-04-25 16:12 43.56427 3.25959 8663 ft 277 kts 125°
2026-04-25 16:12 43.55647 3.27400 8444 ft 277 kts 125°
2026-04-25 16:13 43.54108 3.30253 8069 ft 276 kts 125°
2026-04-25 16:13 43.52981 3.32331 7815 ft 274 kts 126°
2026-04-25 16:13 43.51839 3.34432 7543 ft 273 kts 126°
2026-04-25 16:13 43.50701 3.36527 7269 ft 273 kts 125°
2026-04-25 16:14 43.49563 3.38623 6965 ft 273 kts 126°
2026-04-25 16:14 43.48430 3.40711 6750 ft 270 kts 126°
2026-04-25 16:14 43.47323 3.42747 6650 ft 263 kts 126°
2026-04-25 16:14 43.46233 3.44751 6483 ft 258 kts 126°
2026-04-25 16:15 43.45167 3.46708 6343 ft 252 kts 126°
2026-04-25 16:15 43.44134 3.48602 6278 ft 242 kts 126°
2026-04-25 16:15 43.43149 3.50405 6187 ft 231 kts 125°
2026-04-25 16:15 43.42198 3.52157 5954 ft 226 kts 126°
2026-04-25 16:16 43.41264 3.53868 5728 ft 222 kts 126°
2026-04-25 16:16 43.40340 3.55562 5527 ft 221 kts 126°
2026-04-25 16:16 43.39425 3.57235 5311 ft 217 kts 126°
2026-04-25 16:16 43.38525 3.58879 5087 ft 212 kts 126°
2026-04-25 16:17 43.37653 3.60472 4882 ft 206 kts 126°
2026-04-25 16:17 43.36791 3.62013 4707 ft 201 kts 131°
2026-04-25 16:17 43.35589 3.62873 4429 ft 195 kts 179°
2026-04-25 16:17 43.34293 3.62782 4260 ft 187 kts 186°
2026-04-25 16:18 43.33002 3.62638 4052 ft 186 kts 188°
2026-04-25 16:18 43.32568 3.62586 3982 ft 185 kts 191°
2026-04-25 16:18 43.31072 3.61000 3709 ft 161 kts 256°
2026-04-25 16:18 43.30992 3.59484 3546 ft 162 kts 277°
2026-04-25 16:19 43.31076 3.57926 3376 ft 165 kts 275°
2026-04-25 16:19 43.31162 3.56354 3158 ft 165 kts 275°
2026-04-25 16:19 43.31247 3.54805 3047 ft 164 kts 274°
2026-04-25 16:20 43.31412 3.51510 2426 ft 171 kts 274°
2026-04-25 16:20 43.31505 3.49950 2151 ft 158 kts 274°
2026-04-25 16:20 43.31641 3.47087 1758 ft 141 kts 271°
2026-04-25 16:21 43.31722 3.45812 1589 ft 127 kts 273°
2026-04-25 16:21 43.31829 3.44599 1360 ft 129 kts 274°
2026-04-25 16:21 43.31922 3.43392 1150 ft 126 kts 272°
2026-04-25 16:21 43.31975 3.42195 946 ft 128 kts 267°
2026-04-25 16:22 43.32025 3.40932 735 ft 131 kts 269°
2026-04-25 16:22 43.32106 3.39687 508 ft 134 kts 269°
2026-04-25 16:22 43.32178 3.38387 347 ft 138 kts 269°
2026-04-25 16:22 43.32251 3.37089 133 ft 137 kts 269°
2026-04-25 16:23 43.32318 3.35824 54 ft 123 kts 272°
2026-04-25 16:23 43.32358 3.35106 55 ft 52 kts 274°
2026-04-25 16:23 43.32384 3.34640 55 ft 46 kts 274°
2026-04-25 16:23 43.32401 3.34323 60 ft 21 kts 274°
2026-04-25 16:24 43.32390 3.34222 60 ft 2 kts 326°
2026-04-25 16:24 43.32405 3.34257 55 ft 9 kts 84°
2026-04-25 16:24 43.32398 3.34385 60 ft 19 kts 94°
2026-04-25 16:24 43.32386 3.34598 58 ft 24 kts 94°
2026-04-25 16:25 43.32373 3.34827 58 ft 23 kts 94°
2026-04-25 16:25 43.32369 3.34901 55 ft 23 kts 94°
2026-04-25 16:25 43.32349 3.35253 56 ft 18 kts 94°
2026-04-25 16:25 43.32304 3.35333 56 ft 12 kts 175°
2026-04-25 16:26 43.32225 3.35326 55 ft 11 kts 184°
2026-04-25 16:26 43.32177 3.35364 57 ft 9 kts 101°
2026-04-25 16:26 43.32151 3.35427 54 ft 8 kts 161°
2026-04-25 16:26 43.32126 3.35414 57 ft 2 kts 273°
2026-04-25 16:27 43.32134 3.35401 57 ft 0 kts 307°